SR9WXZ Weather Reports


time (UTC)temp
C
wind
direction
speed
KPH
gust
KPH
rain 1hr
cm
rain 24hr
cm
rain mn
cm
humidity
%
barometer
mb
20260507115830 16 267 3.2 4.8 0.00 0.00 0.00 100
20260507115330 16 90 3.2 3.2 0.00 0.00 0.00 100
20260507114829 15 91 3.2 4.8 0.00 0.00 0.00 100
20260507114329 15 94 6.4 9.7 0.00 0.00 0.00 100
20260507113829 16 91 4.8 6.4 0.00 0.00 0.00 100
20260507113329 16 87 6.4 8.0 0.00 0.00 0.00 100
20260507112829 16 91 6.4 9.7 0.00 0.00 0.00 100
20260507112327 16 264 6.4 9.7 0.00 0.00 0.00 100
20260507111819 16 221 6.4 11.3 0.00 0.00 0.00 100
20260507110815 17 186 8.0 12.9 0.00 0.00 0.00 100
20260507110314 17 213 4.8 9.7 0.00 0.00 0.00 100
20260507105813 17 194 8.0 12.9 0.00 0.00 0.00 100
20260507105312 18 197 6.4 11.3 0.00 0.00 0.00 100
20260507104809 18 202 9.7 16.1 0.00 0.00 0.00 100
20260507104309 18 184 6.4 9.7 0.00 0.00 0.00 100
20260507103808 18 182 6.4 9.7 0.00 0.00 0.00 100
20260507103308 18 191 8.0 11.3 0.00 0.00 0.00 100
20260507102808 18 97 4.8 4.8 0.00 0.00 0.00 100
20260507102307 18 115 3.2 3.2 0.00 0.00 0.00 100
20260507101807 18 151 3.2 4.8 0.00 0.00 0.00 100
20260507101307 18 168 3.2 4.8 0.00 0.00 0.00 100
20260507100807 18 151 9.7 16.1 0.00 0.00 0.00 100
20260507100256 18 125 3.2 8.0 0.00 0.00 0.00 100
20260507095756 18 135 11.3 17.7 0.00 0.00 0.00 100
20260507095256 18 120 8.0 12.9 0.00 0.00 0.00 100
20260507094756 18 120 6.4 11.3 0.00 0.00 0.00 100
20260507093754 19 126 9.7 16.1 0.00 0.00 0.00 100
20260507093254 18 135 12.9 17.7 0.00 0.00 0.00 100
20260507092754 18 127 12.9 17.7 0.00 0.00 0.00 100
20260507091753 18 140 12.9 17.7 0.00 0.00 0.00 100
20260507091253 18 131 16.1 20.9 0.00 0.00 0.00 100
20260507090753 18 125 9.7 19.3 0.00 0.00 0.00 100
20260507090253 18 125 11.3 19.3 0.00 0.00 0.00 100
20260507085749 18 124 11.3 19.3 0.00 0.00 0.00 100
20260507085249 18 138 9.7 12.9 0.00 0.00 0.00 100
20260507084749 17 122 6.4 11.3 0.00 0.00 0.00 100
20260507084249 17 119 4.8 9.7 0.00 0.00 0.00 100
20260507083749 18 122 8.0 14.5 0.00 0.00 0.00 100
20260507083249 18 137 9.7 16.1 0.00 0.00 0.00 100
20260507082748 18 136 8.0 9.7 0.00 0.00 0.00 100
20260507082248 17 131 11.3 16.1 0.00 0.00 0.00 100
20260507081748 17 145 11.3 19.3 0.00 0.00 0.00 100
20260507081248 17 131 11.3 16.1 0.00 0.00 0.00 100
20260507080748 17 134 4.8 6.4 0.00 0.00 0.00 100
20260507080247 17 139 9.7 19.3 0.00 0.00 0.00 100
20260507075747 17 135 14.5 22.5 0.00 0.00 0.00 100
20260507075247 17 141 9.7 16.1 0.00 0.00 0.00 100
20260507074247 17 137 12.9 19.3 0.00 0.00 0.00 100
20260507073747 17 140 9.7 17.7 0.00 0.00 0.00 100
20260507073246 17 149 11.3 17.7 0.00 0.00 0.00 100
20260507072733 17 133 11.3 14.5 0.00 0.00 0.00 100
20260507072233 17 131 8.0 12.9 0.00 0.00 0.00 100
20260507071733 17 122 8.0 11.3 0.00 0.00 0.00 100
20260507071232 17 125 11.3 24.1 0.00 0.00 0.00 100
20260507070728 17 119 14.5 29.0 0.00 0.00 0.00 100
20260507070228 17 122 16.1 24.1 0.00 0.00 0.00 100
20260507065728 17 119 8.0 11.3 0.00 0.00 0.00 100
20260507065228 17 140 9.7 12.9 0.00 0.00 0.00 100
20260507064728 17 136 8.0 11.3 0.00 0.00 0.00 100
20260507064227 17 133 6.4 11.3 0.00 0.00 0.00 100
20260507063726 17 145 11.3 16.1 0.00 0.00 0.00 100
20260507063226 17 126 6.4 12.9 0.00 0.00 0.00 100
20260507062726 17 135 6.4 11.3 0.00 0.00 0.00 100
20260507062226 17 127 6.4 12.9 0.00 0.00 0.00 100
20260507061725 17 132 9.7 14.5 0.00 0.00 0.00 100
20260507061225 17 127 12.9 25.7 0.00 0.00 0.00 100
20260507060725 17 131 8.0 16.1 0.00 0.00 0.00 100
20260507060225 17 136 9.7 14.5 0.00 0.00 0.00 100
20260507055724 16 144 16.1 27.4 0.00 0.00 0.00 100
20260507055224 16 139 9.7 12.9 0.00 0.00 0.00 100
20260507054724 16 142 16.1 24.1 0.00 0.00 0.00 100
20260507054224 16 140 11.3 19.3 0.00 0.00 0.00 100
20260507053724 16 139 9.7 17.7 0.00 0.00 0.00 100
20260507053224 16 140 8.0 14.5 0.00 0.00 0.00 100
20260507052723 16 142 6.4 6.4 0.00 0.00 0.00 100
20260507052223 16 145 4.8 6.4 0.00 0.00 0.00 100
20260507051720 16 151 9.7 16.1 0.00 0.00 0.00 100
20260507051220 15 150 4.8 9.7 0.00 0.00 0.00 100
20260507050719 16 144 3.2 4.8 0.00 0.00 0.00 100
20260507050219 16 144 3.2 3.2 0.00 0.00 0.00 100
20260507045719 15 144 3.2 3.2 0.00 0.00 0.00 100
20260507044708 15 144 3.2 3.2 0.00 0.00 0.00 100
20260507044208 15 144 3.2 3.2 0.00 0.00 0.00 100
20260507043707 16 159 3.2 4.8 0.00 0.00 0.00 100
20260507043206 15 161 3.2 6.4 0.00 0.00 0.00 100
20260507042706 15 161 3.2 3.2 0.00 0.00 0.00 100
20260507042206 15 161 3.2 3.2 0.00 0.00 0.00 100
20260507041706 15 145 3.2 4.8 0.00 0.00 0.00 100
20260507041205 16 224 3.2 4.8 0.00 0.00 0.00 100
20260507040706 15 201 3.2 4.8 0.00 0.00 0.00 100
20260507040205 16 105 4.8 6.4 0.00 0.00 0.00 100
20260507035705 16 115 4.8 6.4 0.00 0.00 0.00 100
20260507035205 15 99 3.2 6.4 0.00 0.00 0.00 100
20260507034149 15 77 8.0 12.9 0.00 0.00 0.00 100
20260507033647 16 122 6.4 12.9 0.00 0.00 0.00 100
20260507033147 15 115 6.4 9.7 0.00 0.00 0.00 100
20260507032643 15 121 3.2 6.4 0.00 0.00 0.00 100
20260507032143 15 123 6.4 9.7 0.00 0.00 0.00 100
20260507031643 15 123 6.4 9.7 0.00 0.00 0.00 100
20260507031143 15 127 4.8 8.0 0.00 0.00 0.00 100
20260507030643 15 140 3.2 6.4 0.00 0.00 0.00 100
20260507030142 15 140 4.8 6.4 0.00 0.00 0.00 100
20260507025642 15 141 6.4 14.5 0.00 0.00 0.00 100
20260507025142 15 141 9.7 17.7 0.00 0.00 0.00 100
20260507024642 15 145 9.7 16.1 0.00 0.00 0.00 100
20260507023642 15 140 9.7 12.9 0.00 0.00 0.00 100
20260507023141 15 140 11.3 14.5 0.00 0.00 0.00 100
20260507022641 15 143 9.7 16.1 0.00 0.00 0.00 100
20260507022141 16 138 9.7 11.3 0.00 0.00 0.00 100
20260507021628 16 147 9.7 12.9 0.00 0.00 0.00 100
20260507021128 16 151 11.3 16.1 0.00 0.00 0.00 100
20260507020628 16 156 9.7 12.9 0.00 0.00 0.00 100
20260507020127 16 148 9.7 14.5 0.00 0.00 0.00 100
20260507015627 16 141 9.7 19.3 0.00 0.00 0.00 100
20260507015127 16 140 8.0 14.5 0.00 0.00 0.00 100
20260507014627 16 152 9.7 12.9 0.00 0.00 0.00 100
20260507014126 16 155 9.7 12.9 0.00 0.00 0.00 100
20260507013623 16 156 12.9 16.1 0.00 0.00 0.00 100
20260507013123 16 152 9.7 14.5 0.00 0.00 0.00 100
20260507012623 16 156 9.7 12.9 0.00 0.00 0.00 100
20260507012122 16 162 4.8 9.7 0.00 0.00 0.00 100
20260507011622 16 171 4.8 6.4 0.00 0.00 0.00 100
20260507011122 16 142 4.8 8.0 0.00 0.00 0.00 100
20260507010622 16 150 4.8 6.4 0.00 0.00 0.00 100
20260507010122 16 153 6.4 9.7 0.00 0.00 0.00 100
20260507005622 16 155 8.0 12.9 0.00 0.00 0.00 100
20260507005121 16 163 6.4 12.9 0.00 0.00 0.00 100
20260507004621 16 163 6.4 12.9 0.00 0.00 0.00 100
20260507004121 17 154 9.7 16.1 0.00 0.00 0.00 100
20260507003621 17 145 6.4 12.9 0.00 0.00 0.00 100
20260507003121 17 171 4.8 8.0 0.00 0.00 0.00 100
20260507002620 17 178 6.4 9.7 0.00 0.00 0.00 100
20260507002120 17 180 4.8 11.3 0.00 0.00 0.00 100
20260507001620 17 190 4.8 9.7 0.00 0.00 0.00 100
20260507001120 17 170 8.0 14.5 0.00 0.00 0.00 100
20260507000619 17 155 9.7 14.5 0.00 0.00 0.00 100
20260507000119 17 147 6.4 12.9 0.00 0.00 0.00 100
20260506235619 17 154 8.0 9.7 0.00 0.00 0.00 100
20260506235118 17 153 11.3 16.1 0.00 0.00 0.00 100
20260506234615 17 161 11.3 19.3 0.00 0.00 0.00 100
20260506234105 17 154 9.7 14.5 0.00 0.00 0.00 100
20260506233605 17 156 9.7 19.3 0.00 0.00 0.00 100
20260506233105 17 162 14.5 25.7 0.00 0.00 0.00 100
20260506232605 17 182 6.4 9.7 0.00 0.00 0.00 100
20260506232104 17 180 6.4 12.9 0.00 0.00 0.00 100
20260506231604 18 180 6.4 9.7 0.00 0.00 0.00 100
20260506231104 17 187 3.2 4.8 0.00 0.00 0.00 100
20260506230604 18 187 4.8 9.7 0.00 0.00 0.00 100
20260506225603 18 182 4.8 6.4 0.00 0.00 0.00 100
20260506225103 18 179 4.8 8.0 0.00 0.00 0.00 100
20260506224603 18 166 9.7 17.7 0.00 0.00 0.00 100
20260506224103 18 167 6.4 11.3 0.00 0.00 0.00 100
20260506223603 18 184 4.8 6.4 0.00 0.00 0.00 100
20260506223103 18 151 6.4 9.7 0.00 0.00 0.00 100
20260506222602 18 159 4.8 6.4 0.00 0.00 0.00 100
20260506222101 18 144 6.4 12.9 0.00 0.00 0.00 100
20260506221601 17 169 4.8 8.0 0.00 0.00 0.00 100
20260506221101 17 155 3.2 4.8 0.00 0.00 0.00 100
20260506220601 18 210 3.2 4.8 0.00 0.00 0.00 100
20260506220101 18 267 3.2 4.8 0.00 0.00 0.00 100
20260506215557 18 216 3.2 4.8 0.00 0.00 0.00 100
20260506215057 18 161 4.8 4.8 0.00 0.00 0.00 100
20260506214556 18 169 4.8 6.4 0.00 0.00 0.00 100
20260506214056 18 172 4.8 9.7 0.00 0.00 0.00 100
20260506213556 18 151 6.4 12.9 0.00 0.00 0.00 100
20260506213056 18 158 3.2 6.4 0.00 0.00 0.00 100
20260506212556 19 144 6.4 9.7 0.00 0.00 0.00 100
20260506212055 19 126 0.0 0.0 0.00 0.00 0.00 100
20260506212005 19 173 8.0 16.1 0.00 0.00 0.00 100
20260506211505 19 157 6.4 11.3 0.00 0.00 0.00 100
20260506211003 18 173 3.2 3.2 0.00 0.00 0.00 100
20260506210503 18 186 4.8 8.0 0.00 0.00 0.00 100
20260506205459 18 143 3.2 6.4 0.00 0.00 0.00 100
20260506204959 18 180 6.4 11.3 0.00 0.00 0.00 100
20260506204459 18 163 3.2 4.8 0.00 0.00 0.00 100
20260506203958 18 149 4.8 4.8 0.00 0.00 0.00 100
20260506203458 18 149 4.8 4.8 0.00 0.00 0.00 100
20260506202958 18 143 3.2 3.2 0.00 0.00 0.00 100
20260506202447 18 141 4.8 11.3 0.00 0.00 0.00 100
20260506201447 18 143 4.8 4.8 0.00 0.00 0.00 100
20260506200443 19 142 4.8 4.8 0.00 0.00 0.00 100
20260506195943 19 141 4.8 9.7 0.00 0.00 0.00 100
20260506195443 19 144 4.8 8.0 0.00 0.00 0.00 100
20260506194943 18 142 4.8 9.7 0.00 0.00 0.00 100
20260506194443 19 141 4.8 4.8 0.00 0.00 0.00 100
20260506193943 19 138 4.8 6.4 0.00 0.00 0.00 100
20260506193442 18 141 3.2 4.8 0.00 0.00 0.00 100
20260506192942 19 138 6.4 14.5 0.00 0.00 0.00 100
20260506192442 20 137 4.8 6.4 0.00 0.00 0.00 100
20260506191942 19 135 4.8 8.0 0.00 0.00 0.00 100
20260506191441 19 139 3.2 4.8 0.00 0.00 0.00 100
20260506190938 18 132 6.4 9.7 0.00 0.00 0.00 100
20260506190438 18 128 4.8 6.4 0.00 0.00 0.00 100
20260506185937 19 139 4.8 11.3 0.00 0.00 0.00 100
20260506185437 20 142 3.2 4.8 0.00 0.00 0.00 100
20260506184937 20 141 4.8 6.4 0.00 0.00 0.00 100
20260506184437 20 140 6.4 8.0 0.00 0.00 0.00 100
20260506183937 20 139 4.8 6.4 0.00 0.00 0.00 100
20260506183436 20 142 3.2 4.8 0.00 0.00 0.00 100
20260506182936 20 135 6.4 11.3 0.00 0.00 0.00 100
20260506182436 20 137 4.8 8.0 0.00 0.00 0.00 100
20260506181936 20 139 4.8 6.4 0.00 0.00 0.00 100
20260506181432 20 129 4.8 6.4 0.00 0.00 0.00 100
20260506180932 20 149 4.8 4.8 0.00 0.00 0.00 100
20260506180432 20 161 3.2 4.8 0.00 0.00 0.00 100
20260506175932 20 153 4.8 6.4 0.00 0.00 0.00 100
20260506175432 21 155 6.4 9.7 0.00 0.00 0.00 100
20260506174919 21 159 4.8 6.4 0.00 0.00 0.00 100
20260506174418 21 150 6.4 9.7 0.00 0.00 0.00 100
20260506173918 21 153 6.4 8.0 0.00 0.00 0.00 100
20260506173418 21 155 8.0 12.9 0.00 0.00 0.00 100
20260506172918 21 154 8.0 11.3 0.00 0.00 0.00 100
20260506172418 21 151 8.0 12.9 0.00 0.00 0.00 100
20260506171914 21 147 8.0 12.9 0.00 0.00 0.00 100
20260506171414 21 151 9.7 16.1 0.00 0.00 0.00 100
20260506170914 21 140 11.3 22.5 0.00 0.00 0.00 100
20260506170414 21 130 12.9 16.1 0.00 0.00 0.00 100
20260506165914 21 126 12.9 32.2 0.00 0.00 0.00 100
20260506165413 21 127 9.7 14.5 0.00 0.00 0.00 100
20260506164913 21 129 14.5 22.5 0.00 0.00 0.00 100
20260506164413 21 129 19.3 33.8 0.00 0.00 0.00 100
20260506163913 21 132 17.7 25.7 0.00 0.00 0.00 100
20260506162912 21 130 16.1 22.5 0.00 0.00 0.00 100
20260506162409 22 131 16.1 30.6 0.00 0.00 0.00 100
20260506161909 22 134 17.7 25.7 0.00 0.00 0.00 100
20260506161409 21 138 6.4 12.9 0.00 0.00 0.00 100
20260506160908 22 135 9.7 22.5 0.00 0.00 0.00 100
20260506160408 22 139 9.7 17.7 0.00 0.00 0.00 100
20260506155908 22 137 12.9 17.7 0.00 0.00 0.00 100
20260506155408 22 140 12.9 20.9 0.00 0.00 0.00 100
20260506154908 22 123 14.5 20.9 0.00 0.00 0.00 100
20260506154407 22 134 11.3 19.3 0.00 0.00 0.00 100
20260506153907 22 130 9.7 14.5 0.00 0.00 0.00 100
20260506153407 22 134 11.3 19.3 0.00 0.00 0.00 100
20260506152904 22 139 12.9 20.9 0.00 0.00 0.00 100
20260506152403 22 136 14.5 24.1 0.00 0.00 0.00 100
20260506151903 22 130 20.9 29.0 0.00 0.00 0.00 100
20260506151353 22 133 17.7 32.2 0.00 0.00 0.00 100
20260506150853 22 134 12.9 16.1 0.00 0.00 0.00 100
20260506150353 22 135 16.1 22.5 0.00 0.00 0.00 100
20260506145853 22 130 14.5 24.1 0.00 0.00 0.00 100
20260506144852 22 133 20.9 32.2 0.00 0.00 0.00 100
20260506144352 22 133 12.9 19.3 0.00 0.00 0.00 100
20260506143852 22 136 11.3 19.3 0.00 0.00 0.00 100
20260506143348 22 135 14.5 22.5 0.00 0.00 0.00 100
20260506142848 22 138 16.1 27.4 0.00 0.00 0.00 100
20260506142348 22 134 19.3 27.4 0.00 0.00 0.00 100
20260506141848 23 122 19.3 29.0 0.00 0.00 0.00 100
20260506141347 23 124 12.9 25.7 0.00 0.00 0.00 100
20260506140847 23 122 14.5 22.5 0.00 0.00 0.00 100
20260506140347 23 117 16.1 22.5 0.00 0.00 0.00 100
20260506135847 23 121 16.1 24.1 0.00 0.00 0.00 100
20260506135347 23 122 12.9 22.5 0.00 0.00 0.00 100
20260506134846 23 131 11.3 14.5 0.00 0.00 0.00 100
20260506134346 23 129 17.7 25.7 0.00 0.00 0.00 100
20260506133843 24 127 12.9 22.5 0.00 0.00 0.00 100
20260506133342 23 119 17.7 27.4 0.00 0.00 0.00 100
20260506132842 23 122 12.9 17.7 0.00 0.00 0.00 100
20260506132342 23 123 16.1 24.1 0.00 0.00 0.00 100
20260506131842 23 118 16.1 27.4 0.00 0.00 0.00 100
20260506131342 23 116 16.1 30.6 0.00 0.00 0.00 100
20260506130842 23 118 12.9 19.3 0.00 0.00 0.00 100
20260506130341 23 121 19.3 27.4 0.00 0.00 0.00 100
20260506125841 23 127 11.3 20.9 0.00 0.00 0.00 100
20260506125341 23 118 12.9 24.1 0.00 0.00 0.00 100
20260506124841 23 129 14.5 19.3 0.00 0.00 0.00 100
20260506124336 23 130 17.7 27.4 0.00 0.00 0.00 100
20260506123823 23 134 14.5 20.9 0.00 0.00 0.00 100
20260506123323 22 131 16.1 24.1 0.00 0.00 0.00 100
20260506122823 23 126 14.5 24.1 0.00 0.00 0.00 100
20260506122322 23 130 12.9 22.5 0.00 0.00 0.00 100
20260506121822 23 129 11.3 19.3 0.00 0.00 0.00 100
20260506121322 22 125 12.9 19.3 0.00 0.00 0.00 100
20260506120822 23 127 12.9 20.9 0.00 0.00 0.00 100
20260506120322 22 122 17.7 32.2 0.00 0.00 0.00 100